,,PA_Meas_PMT16A,,PR_Meas_QMR101_102,,RH_Meas_QMH101,,SR_Meas_QMS101,,TA_Meas_QMH101,,GenWind,,GenWind,
time,status,PA,status,PR,status,RH,status,SR,status,TA,status,DirAvg,status,SpdAvg,
2010-11-18, 00:00:04,VALID,918.242,VALID,0,VALID,96.8936,VALID,0,VALID,18.8045,VALID,31,VALID,0,
2010-11-18, 00:01:04,VALID,918.244,VALID,0,VALID,96.886,VALID,0.107441,VALID,18.8045,VALID,31,VALID,0,
2010-11-18, 00:02:04,VALID,918.241,VALID,0,VALID,96.9089,VALID,0.107441,VALID,18.8434,VALID,31,VALID,0,
2010-11-18, 00:03:04,VALID,918.254,VALID,0,VALID,96.8936,VALID,0.107441,VALID,18.8434,VALID,31,VALID,0,
2010-11-18, 00:04:04,VALID,918.231,VALID,0,VALID,96.9241,VALID,0.107441,VALID,18.824,VALID,31,VALID,0,
2010-11-18, 00:05:04,VALID,918.204,VALID,0,VALID,96.9165,VALID,0,VALID,18.8839,VALID,31,VALID,0,
2010-11-18, 00:06:04,VALID,918.166,VALID,0,VALID,96.8555,VALID,0.107441,VALID,18.8824,VALID,31,VALID,0,
2010-11-18, 00:07:04,VALID,918.195,VALID,0,VALID,96.8707,VALID,0.107441,VALID,18.824,VALID,31,VALID,0,
2010-11-18, 00:08:04,VALID,918.16,VALID,0,VALID,96.9089,VALID,0.107441,VALID,18.8629,VALID,31,VALID,0,
2010-11-18, 00:09:04,VALID,918.166,VALID,0,VALID,96.8936,VALID,0.107441,VALID,18.9019,VALID,31,VALID,0,
2010-11-18, 00:10:04,VALID,918.143,VALID,0,VALID,96.9241,VALID,0.107441,VALID,18.8629,VALID,31,VALID,0,
2010-11-18, 00:11:04,VALID,918.119,VALID,0,VALID,96.9165,VALID,0.107441,VALID,18.8824,VALID,31,VALID,0,
2010-11-18, 00:12:04,VALID,918.103,VALID,0,VALID,96.9089,VALID,0.107441,VALID,18.9019,VALID,31,VALID,0,
2010-11-18, 00:13:04,VALID,918.097,VALID,0,VALID,96.8936,VALID,0,VALID,18.9019,VALID,31,VALID,0,
2010-11-18, 00:14:04,VALID,918.088,VALID,0,VALID,96.8555,VALID,0,VALID,18.8644,VALID,31,VALID,0,
2010-11-18, 00:15:04,VALID,918.065,VALID,0,VALID,96.825,VALID,0,VALID,18.8449,VALID,31,VALID,0,
2010-11-18, 00:16:04,VALID,918.043,VALID,0,VALID,96.7945,VALID,0,VALID,18.8254,VALID,31,VALID,0,
2010-11-18, 00:17:04,VALID,918.037,VALID,0,VALID,96.7793,VALID,0,VALID,18.8059,VALID,31,VALID,0,
2010-11-18, 00:18:04,VALID,917.985,VALID,0,VALID,96.8021,VALID,0,VALID,18.7864,VALID,31,VALID,0,
2010-11-18, 00:19:04,VALID,917.968,VALID,0,VALID,96.8326,VALID,0,VALID,18.8059,VALID,31,VALID,0,
2010-11-18, 00:20:04,VALID,917.952,VALID,0,VALID,96.825,VALID,0,VALID,18.8073,VALID,31,VALID,0,
2010-11-18, 00:21:04,VALID,917.929,VALID,0,VALID,96.8326,VALID,0,VALID,18.8059,VALID,31,VALID,0,
2010-11-18, 00:22:04,VALID,917.903,VALID,0,VALID,96.8479,VALID,0,VALID,18.7669,VALID,31,VALID,0,
2010-11-18, 00:23:04,VALID,917.87,VALID,0,VALID,96.8555,VALID,0,VALID,18.7669,VALID,31,VALID,0,
2010-11-18, 00:24:04,VALID,917.834,VALID,0,VALID,96.8707,VALID,0,VALID,18.7864,VALID,31,VALID,0,
2010-11-18, 00:25:04,VALID,917.805,VALID,0,VALID,96.8707,VALID,0,VALID,18.7864,VALID,31,VALID,0,
2010-11-18, 00:26:04,VALID,917.814,VALID,0,VALID,96.8784,VALID,0,VALID,18.7878,VALID,31,VALID,0,
2010-11-18, 00:27:04,VALID,917.829,VALID,0,VALID,96.8479,VALID,0,VALID,18.7669,VALID,31,VALID,0,
2010-11-18, 00:28:04,VALID,917.788,VALID,0,VALID,96.886,VALID,0,VALID,18.7669,VALID,31,VALID,0,
2010-11-18, 00:29:04,VALID,917.767,VALID,0,VALID,96.8784,VALID,0,VALID,18.7655,VALID,31,VALID,0,
2010-11-18, 00:30:04,VALID,917.729,VALID,0,VALID,96.8403,VALID,0,VALID,18.7655,VALID,31,VALID,0,
2010-11-18, 00:31:04,VALID,917.729,VALID,0,VALID,96.8403,VALID,0,VALID,18.8059,VALID,31,VALID,0,
2010-11-18, 00:32:04,VALID,917.729,VALID,0,VALID,96.8021,VALID,0,VALID,18.7669,VALID,31,VALID,0,
2010-11-18, 00:33:04,VALID,917.69,VALID,0,VALID,96.8021,VALID,0,VALID,18.7474,VALID,31,VALID,0,
2010-11-18, 00:34:04,VALID,917.677,VALID,0,VALID,96.7945,VALID,0.107441,VALID,18.7279,VALID,31,VALID,0,
2010-11-18, 00:35:04,VALID,917.674,VALID,0,VALID,96.8098,VALID,0.107441,VALID,18.707,VALID,31,VALID,0,
2010-11-18, 00:36:04,VALID,917.646,VALID,0,VALID,96.8098,VALID,0,VALID,18.707,VALID,31,VALID,0,
2010-11-18, 00:37:04,VALID,917.624,VALID,0,VALID,96.8174,VALID,0,VALID,18.668,VALID,31,VALID,0,
2010-11-18, 00:38:04,VALID,917.622,VALID,0,VALID,96.8174,VALID,0,VALID,18.668,VALID,31,VALID,0,
2010-11-18, 00:39:04,VALID,917.65,VALID,0,VALID,96.8326,VALID,0.107441,VALID,18.668,VALID,31,VALID,0,
2010-11-18, 00:40:04,VALID,917.651,VALID,0,VALID,96.8403,VALID,0,VALID,18.6485,VALID,31,VALID,0,
2010-11-18, 00:41:04,VALID,917.629,VALID,0,VALID,96.8631,VALID,0,VALID,18.6499,VALID,31,VALID,0,
2010-11-18, 00:42:04,VALID,917.652,VALID,0,VALID,96.8631,VALID,0.107441,VALID,18.6694,VALID,31,VALID,0.674219,
2010-11-18, 00:43:04,VALID,917.577,VALID,0,VALID,96.886,VALID,0,VALID,18.629,VALID,31,VALID,0.901563,
2010-11-18, 00:44:04,VALID,917.578,VALID,0,VALID,96.8707,VALID,0,VALID,18.6304,VALID,31,VALID,0.699219,
2010-11-18, 00:45:04,VALID,917.56,VALID,0,VALID,96.9317,VALID,0,VALID,18.6889,VALID,31,VALID,0.626562,
2010-11-18, 00:46:04,VALID,917.542,VALID,0,VALID,96.9546,VALID,0,VALID,18.7084,VALID,31,VALID,0.855078,
2010-11-18, 00:47:04,VALID,917.516,VALID,0,VALID,96.9622,VALID,0,VALID,18.6694,VALID,31,VALID,0.592969,
2010-11-18, 00:48:04,VALID,917.495,VALID,0,VALID,96.9698,VALID,0,VALID,18.6889,VALID,31,VALID,0.730078,
2010-11-18, 00:49:04,VALID,917.49,VALID,0,VALID,96.9851,VALID,0,VALID,18.7084,VALID,31,VALID,0.683984,
2010-11-18, 00:50:04,VALID,917.482,VALID,0,VALID,96.9927,VALID,0,VALID,18.7488,VALID,31,VALID,0.275391,
2010-11-18, 00:51:04,VALID,917.452,VALID,0,VALID,97.0156,VALID,0,VALID,18.7084,VALID,31,VALID,0.811328,
2010-11-18, 00:52:04,VALID,917.427,VALID,0,VALID,97.0232,VALID,0,VALID,18.7084,VALID,31,VALID,1.02773,
2010-11-18, 00:53:04,VALID,917.418,VALID,0,VALID,97.0385,VALID,0,VALID,18.7683,VALID,31,VALID,0.275391,
2010-11-18, 00:54:04,VALID,917.407,VALID,0,VALID,97.0232,VALID,0,VALID,18.7084,VALID,32,VALID,1.13008,
2010-11-18, 00:55:04,VALID,917.412,VALID,0,VALID,97.0461,VALID,0,VALID,18.7084,VALID,32,VALID,0.569531,
2010-11-18, 00:56:04,VALID,917.411,VALID,0,VALID,97.069,VALID,0,VALID,18.7084,VALID,47,VALID,0.757813,
2010-11-18, 00:57:04,VALID,917.39,VALID,0,VALID,97.0766,VALID,0,VALID,18.6889,VALID,169,VALID,0.865625,
2010-11-18, 00:58:04,VALID,917.354,VALID,0,VALID,97.069,VALID,0,VALID,18.7683,VALID,142,VALID,0.727734,
2010-11-18, 00:59:04,VALID,917.338,VALID,0,VALID,97.0842,VALID,0,VALID,18.6875,VALID,142,VALID,0.791797,
2010-11-18, 01:00:04,VALID,917.343,VALID,0,VALID,97.0918,VALID,0.107441,VALID,18.707,VALID,142,VALID,0.363281,
2010-11-18, 01:01:04,VALID,917.298,VALID,0,VALID,97.0613,VALID,0,VALID,18.6875,VALID,142,VALID,0.426172,
2010-11-18, 01:02:04,VALID,917.25,VALID,0,VALID,97.0994,VALID,0,VALID,18.629,VALID,142,VALID,0.688281,
2010-11-18, 01:03:04,VALID,917.233,VALID,0,VALID,97.1071,VALID,0.107441,VALID,18.668,VALID,142,VALID,0.726172,
2010-11-18, 01:04:04,VALID,917.219,VALID,0,VALID,97.1071,VALID,0.107441,VALID,18.6095,VALID,142,VALID,0.840234,
2010-11-18, 01:05:04,VALID,917.185,VALID,0,VALID,97.0994,VALID,0,VALID,18.6095,VALID,142,VALID,0.76875,
2010-11-18, 01:06:04,VALID,917.151,VALID,0,VALID,97.1376,VALID,0,VALID,18.59,VALID,142,VALID,0.51875,
2010-11-18, 01:07:04,VALID,917.141,VALID,0,VALID,97.1528,VALID,0,VALID,18.6304,VALID,142,VALID,0.589453,
2010-11-18, 01:08:04,VALID,917.107,VALID,0,VALID,97.1299,VALID,0,VALID,18.6109,VALID,142,VALID,0.958984,
2010-11-18, 01:09:04,VALID,917.094,VALID,0,VALID,97.1376,VALID,0,VALID,18.5705,VALID,142,VALID,0.69375,
2010-11-18, 01:10:04,VALID,917.057,VALID,0,VALID,97.1452,VALID,0,VALID,18.5316,VALID,142,VALID,1.0875,
2010-11-18, 01:11:04,VALID,917.054,VALID,0,VALID,97.1528,VALID,0,VALID,18.533,VALID,142,VALID,0.510156,
2010-11-18, 01:12:04,VALID,917.013,VALID,0,VALID,97.1757,VALID,0.107441,VALID,18.5525,VALID,142,VALID,0.846875,
2010-11-18, 01:13:04,VALID,917.016,VALID,0,VALID,97.1986,VALID,0,VALID,18.5121,VALID,142,VALID,0.433984,
2010-11-18, 01:14:04,VALID,917.006,VALID,0,VALID,97.1909,VALID,0,VALID,18.5135,VALID,142,VALID,0.542188,
2010-11-18, 01:15:04,VALID,916.99,VALID,0,VALID,97.1986,VALID,0,VALID,18.533,VALID,142,VALID,0.665234,
2010-11-18, 01:16:04,VALID,916.951,VALID,0,VALID,97.2214,VALID,0,VALID,18.5539,VALID,142,VALID,0.769531,
2010-11-18, 01:17:04,VALID,916.955,VALID,0,VALID,97.2214,VALID,0,VALID,18.4745,VALID,142,VALID,0.926953,
2010-11-18, 01:18:04,VALID,916.92,VALID,0,VALID,97.229,VALID,0,VALID,18.5344,VALID,142,VALID,0.692969,
2010-11-18, 01:19:04,VALID,916.907,VALID,0,VALID,97.2367,VALID,0,VALID,18.4745,VALID,142,VALID,0.709766,
2010-11-18, 01:20:04,VALID,916.902,VALID,0,VALID,97.2519,VALID,0,VALID,18.533,VALID,142,VALID,0.571094,
2010-11-18, 01:21:04,VALID,916.867,VALID,0,VALID,97.2367,VALID,0,VALID,18.494,VALID,142,VALID,0.647656,
2010-11-18, 01:22:04,VALID,916.876,VALID,0,VALID,97.2443,VALID,0,VALID,18.5149,VALID,142,VALID,0.61875,
2010-11-18, 01:23:04,VALID,916.817,VALID,0,VALID,97.2443,VALID,0,VALID,18.5344,VALID,109,VALID,0.775391,
2010-11-18, 01:24:04,VALID,916.823,VALID,0,VALID,97.2672,VALID,0,VALID,18.494,VALID,162,VALID,0.443359,
2010-11-18, 01:25:04,VALID,916.843,VALID,0,VALID,97.2672,VALID,0,VALID,18.4954,VALID,162,VALID,0.00117188,
2010-11-18, 01:26:04,VALID,916.848,VALID,0,VALID,97.2672,VALID,0,VALID,18.494,VALID,162,VALID,0.527344,
2010-11-18, 01:27:04,VALID,916.819,VALID,0,VALID,97.29,VALID,0,VALID,18.494,VALID,162,VALID,0.677344,
2010-11-18, 01:28:04,VALID,916.793,VALID,0,VALID,97.29,VALID,0,VALID,18.4954,VALID,162,VALID,0.553125,
2010-11-18, 01:29:04,VALID,916.801,VALID,0,VALID,97.2977,VALID,0.107441,VALID,18.494,VALID,162,VALID,0.710938,
2010-11-18, 01:30:04,VALID,916.754,VALID,0,VALID,97.3129,VALID,0,VALID,18.4926,VALID,162,VALID,0.53125,
2010-11-18, 01:31:04,VALID,916.758,VALID,0,VALID,97.3205,VALID,0,VALID,18.4926,VALID,162,VALID,0.2125,
2010-11-18, 01:32:04,VALID,916.753,VALID,0,VALID,97.3205,VALID,0,VALID,18.533,VALID,162,VALID,0.239063,
2010-11-18, 01:33:04,VALID,916.708,VALID,0,VALID,97.2824,VALID,0,VALID,18.4731,VALID,162,VALID,0.112109,
2010-11-18, 01:34:04,VALID,916.715,VALID,0,VALID,97.2748,VALID,0,VALID,18.4926,VALID,162,VALID,0.476563,
2010-11-18, 01:35:04,VALID,916.702,VALID,0,VALID,97.2824,VALID,0,VALID,18.4355,VALID,162,VALID,0.558984,
2010-11-18, 01:36:04,VALID,916.671,VALID,0,VALID,97.3205,VALID,0,VALID,18.4536,VALID,162,VALID,0.682422,
2010-11-18, 01:37:04,VALID,916.686,VALID,0,VALID,97.3129,VALID,0.107441,VALID,18.455,VALID,162,VALID,0.900781,
2010-11-18, 01:38:04,VALID,916.668,VALID,0,VALID,97.2977,VALID,0,VALID,18.4146,VALID,162,VALID,0.717578,
2010-11-18, 01:39:04,VALID,916.659,VALID,0,VALID,97.2824,VALID,0,VALID,18.4146,VALID,162,VALID,0.859766,
2010-11-18, 01:40:04,VALID,916.641,VALID,0,VALID,97.3053,VALID,0,VALID,18.4341,VALID,162,VALID,0.947656,
2010-11-18, 01:41:04,VALID,916.634,VALID,0,VALID,97.2977,VALID,0,VALID,18.416,VALID,162,VALID,0.983203,
2010-11-18, 01:42:04,VALID,916.629,VALID,0,VALID,97.2519,VALID,0,VALID,18.3561,VALID,145,VALID,1.03242,
2010-11-18, 01:43:04,VALID,916.648,VALID,0,VALID,97.2672,VALID,0,VALID,18.377,VALID,113,VALID,1.03945,
2010-11-18, 01:44:04,VALID,916.605,VALID,0,VALID,97.2595,VALID,0,VALID,18.338,VALID,113,VALID,1.08359,
2010-11-18, 01:45:04,VALID,916.625,VALID,0,VALID,97.2443,VALID,0,VALID,18.3589,VALID,113,VALID,0.898828,
2010-11-18, 01:46:04,VALID,916.609,VALID,0,VALID,97.2519,VALID,0,VALID,18.3394,VALID,113,VALID,0.810938,
2010-11-18, 01:47:04,VALID,916.586,VALID,0,VALID,97.29,VALID,0,VALID,18.3784,VALID,113,VALID,0.837109,
2010-11-18, 01:48:04,VALID,916.614,VALID,0,VALID,97.29,VALID,0,VALID,18.3589,VALID,113,VALID,0.828906,
2010-11-18, 01:49:04,VALID,916.632,VALID,0,VALID,97.29,VALID,0,VALID,18.3199,VALID,113,VALID,0.68125,
2010-11-18, 01:50:04,VALID,916.586,VALID,0,VALID,97.2824,VALID,0,VALID,18.3394,VALID,113,VALID,0.841016,
2010-11-18, 01:51:04,VALID,916.56,VALID,0,VALID,97.2672,VALID,0,VALID,18.3199,VALID,113,VALID,0.209375,
2010-11-18, 01:52:04,VALID,916.575,VALID,0,VALID,97.3053,VALID,0,VALID,18.3589,VALID,113,VALID,0,
2010-11-18, 01:53:04,VALID,916.566,VALID,0,VALID,97.3053,VALID,0,VALID,18.299,VALID,113,VALID,0,
2010-11-18, 01:54:04,VALID,916.575,VALID,0,VALID,97.3053,VALID,0,VALID,18.3185,VALID,113,VALID,0,
2010-11-18, 01:55:04,VALID,916.552,VALID,0,VALID,97.3205,VALID,0,VALID,18.3199,VALID,113,VALID,0,
2010-11-18, 01:56:04,VALID,916.513,VALID,0,VALID,97.3281,VALID,0,VALID,18.3185,VALID,113,VALID,0,
2010-11-18, 01:57:04,VALID,916.474,VALID,0,VALID,97.2824,VALID,0,VALID,18.3185,VALID,113,VALID,0,
2010-11-18, 01:58:04,VALID,916.49,VALID,0,VALID,97.229,VALID,0,VALID,18.3185,VALID,113,VALID,0,
2010-11-18, 01:59:04,VALID,916.455,VALID,0,VALID,97.2214,VALID,0,VALID,18.2601,VALID,113,VALID,0.608984,
2010-11-18, 02:00:04,VALID,916.434,VALID,0,VALID,97.2595,VALID,0,VALID,18.2406,VALID,113,VALID,0.218359,
2010-11-18, 02:01:04,VALID,916.438,VALID,0,VALID,97.29,VALID,0,VALID,18.2392,VALID,113,VALID,0,
2010-11-18, 02:02:04,VALID,916.431,VALID,0,VALID,97.3053,VALID,0,VALID,18.2392,VALID,113,VALID,0.0046875,
2010-11-18, 02:03:04,VALID,916.434,VALID,0,VALID,97.3205,VALID,0,VALID,18.2197,VALID,113,VALID,0.620703,
2010-11-18, 02:04:04,VALID,916.418,VALID,0,VALID,97.2824,VALID,0,VALID,18.2406,VALID,113,VALID,0.701563,
2010-11-18, 02:05:04,VALID,916.395,VALID,0,VALID,97.2748,VALID,0.107441,VALID,18.2587,VALID,113,VALID,0.583203,
2010-11-18, 02:06:04,VALID,916.378,VALID,0,VALID,97.2748,VALID,0.107441,VALID,18.2601,VALID,113,VALID,0.369141,
2010-11-18, 02:07:04,VALID,916.362,VALID,0,VALID,97.29,VALID,0,VALID,18.2601,VALID,113,VALID,0.471484,
2010-11-18, 02:08:04,VALID,916.345,VALID,0,VALID,97.3205,VALID,0,VALID,18.2406,VALID,113,VALID,0.609766,
2010-11-18, 02:09:04,VALID,916.32,VALID,0,VALID,97.3129,VALID,0,VALID,18.2796,VALID,113,VALID,0.5875,
2010-11-18, 02:10:04,VALID,916.314,VALID,0,VALID,97.3129,VALID,0,VALID,18.2406,VALID,113,VALID,0.48125,
2010-11-18, 02:11:04,VALID,916.314,VALID,0,VALID,97.3129,VALID,0,VALID,18.299,VALID,113,VALID,0,
2010-11-18, 02:12:04,VALID,916.269,VALID,0,VALID,97.3053,VALID,0,VALID,18.2601,VALID,113,VALID,0,
2010-11-18, 02:13:04,VALID,916.265,VALID,0,VALID,97.3129,VALID,0,VALID,18.2406,VALID,113,VALID,0,
2010-11-18, 02:14:04,VALID,916.202,VALID,0,VALID,97.351,VALID,0,VALID,18.2615,VALID,113,VALID,0,
2010-11-18, 02:15:04,VALID,916.24,VALID,0,VALID,97.3281,VALID,0,VALID,18.3004,VALID,113,VALID,0,
2010-11-18, 02:16:04,VALID,916.233,VALID,0,VALID,97.3205,VALID,0,VALID,18.3004,VALID,113,VALID,0,
2010-11-18, 02:17:04,VALID,916.234,VALID,0,VALID,97.3281,VALID,0,VALID,18.3199,VALID,113,VALID,0,
2010-11-18, 02:18:04,VALID,916.217,VALID,0,VALID,97.3205,VALID,0,VALID,18.2601,VALID,113,VALID,0,
2010-11-18, 02:19:04,VALID,916.187,VALID,0,VALID,97.3129,VALID,0,VALID,18.3589,VALID,113,VALID,0,
2010-11-18, 02:20:04,VALID,916.166,VALID,0,VALID,97.3053,VALID,0,VALID,18.3589,VALID,113,VALID,0,
2010-11-18, 02:21:04,VALID,916.191,VALID,0,VALID,97.2748,VALID,0,VALID,18.2809,VALID,112,VALID,0,
2010-11-18, 02:22:04,VALID,916.135,VALID,0,VALID,97.2977,VALID,0,VALID,18.3004,VALID,113,VALID,0,
2010-11-18, 02:23:04,VALID,916.147,VALID,0,VALID,97.29,VALID,0,VALID,18.3004,VALID,112,VALID,0,
2010-11-18, 02:24:04,VALID,916.107,VALID,0,VALID,97.2824,VALID,0,VALID,18.3004,VALID,113,VALID,0,
2010-11-18, 02:25:04,VALID,916.106,VALID,0,VALID,97.2214,VALID,0,VALID,18.3199,VALID,113,VALID,0,
2010-11-18, 02:26:04,VALID,916.042,VALID,0,VALID,97.1147,VALID,0,VALID,18.203,VALID,113,VALID,0,
2010-11-18, 02:27:04,VALID,916.055,VALID,0,VALID,97.1299,VALID,0,VALID,18.164,VALID,113,VALID,0,
2010-11-18, 02:28:04,VALID,916.036,VALID,0,VALID,97.1299,VALID,0,VALID,18.1055,VALID,113,VALID,0,
2010-11-18, 02:29:04,VALID,916.004,VALID,0,VALID,97.1833,VALID,0,VALID,18.0651,VALID,113,VALID,0,
2010-11-18, 02:30:04,VALID,916.027,VALID,0,VALID,97.1833,VALID,0,VALID,18.0846,VALID,111,VALID,0,
2010-11-18, 02:31:04,VALID,916.025,VALID,0,VALID,97.2824,VALID,0,VALID,18.1236,VALID,113,VALID,0,
2010-11-18, 02:32:04,VALID,916.019,VALID,0,VALID,97.3205,VALID,0,VALID,18.203,VALID,113,VALID,0,
2010-11-18, 02:33:05,VALID,915.998,VALID,0,VALID,97.2977,VALID,0,VALID,18.1835,VALID,113,VALID,0,
2010-11-18, 02:34:05,VALID,915.993,VALID,0,VALID,97.2748,VALID,0,VALID,18.1626,VALID,113,VALID,0,
2010-11-18, 02:35:05,VALID,916.025,VALID,0,VALID,97.2748,VALID,0,VALID,18.203,VALID,113,VALID,0,
2010-11-18, 02:36:05,VALID,915.994,VALID,0,VALID,97.29,VALID,0,VALID,18.1626,VALID,113,VALID,0,
2010-11-18, 02:37:05,VALID,916.002,VALID,0,VALID,97.1833,VALID,0,VALID,18.1445,VALID,113,VALID,0,
2010-11-18, 02:38:05,VALID,915.978,VALID,0,VALID,97.1528,VALID,0,VALID,18.125,VALID,113,VALID,0,
2010-11-18, 02:39:05,VALID,915.973,VALID,0,VALID,97.0918,VALID,0,VALID,18.0275,VALID,113,VALID,0,
2010-11-18, 02:40:05,VALID,915.988,VALID,0,VALID,97.1147,VALID,0,VALID,18.008,VALID,113,VALID,0,
2010-11-18, 02:41:05,VALID,915.965,VALID,0,VALID,97.1833,VALID,0,VALID,17.9496,VALID,113,VALID,0,
2010-11-18, 02:42:05,VALID,915.955,VALID,0,VALID,97.3434,VALID,0,VALID,17.9886,VALID,113,VALID,0,
2010-11-18, 02:43:05,VALID,915.99,VALID,0,VALID,97.3663,VALID,0,VALID,18.0262,VALID,113,VALID,0,
2010-11-18, 02:44:05,VALID,915.96,VALID,0,VALID,97.4196,VALID,0,VALID,18.1445,VALID,113,VALID,0,
2010-11-18, 02:45:05,VALID,915.958,VALID,0,VALID,97.3968,VALID,0,VALID,18.1431,VALID,113,VALID,0,
2010-11-18, 02:46:05,VALID,915.959,VALID,0,VALID,97.4196,VALID,0,VALID,18.203,VALID,113,VALID,0,
2010-11-18, 02:47:05,VALID,915.94,VALID,0,VALID,97.3739,VALID,0,VALID,18.2211,VALID,113,VALID,0,
2010-11-18, 02:48:05,VALID,915.98,VALID,0,VALID,97.2977,VALID,0,VALID,18.203,VALID,113,VALID,0,
2010-11-18, 02:49:05,VALID,915.965,VALID,0,VALID,97.2824,VALID,0,VALID,18.203,VALID,113,VALID,0,
2010-11-18, 02:50:05,VALID,915.965,VALID,0,VALID,97.1909,VALID,0,VALID,18.0665,VALID,113,VALID,0,
2010-11-18, 02:51:05,VALID,915.95,VALID,0,VALID,97.229,VALID,0,VALID,18.0665,VALID,113,VALID,0,
2010-11-18, 02:52:05,VALID,915.923,VALID,0,VALID,97.1909,VALID,0,VALID,18.0067,VALID,113,VALID,0,
2010-11-18, 02:53:05,VALID,915.934,VALID,0,VALID,97.2443,VALID,0,VALID,17.9691,VALID,113,VALID,0,
2010-11-18, 02:54:05,VALID,915.927,VALID,0,VALID,97.29,VALID,0,VALID,17.9691,VALID,113,VALID,0,
2010-11-18, 02:55:05,VALID,915.94,VALID,0,VALID,97.3053,VALID,0,VALID,17.9496,VALID,113,VALID,0,
2010-11-18, 02:56:05,VALID,915.932,VALID,0,VALID,97.3281,VALID,0,VALID,17.9886,VALID,113,VALID,0,
2010-11-18, 02:57:05,VALID,915.918,VALID,0,VALID,97.3129,VALID,0,VALID,18.047,VALID,113,VALID,0,
2010-11-18, 02:58:05,VALID,915.914,VALID,0,VALID,97.3205,VALID,0,VALID,18.008,VALID,113,VALID,0,
2010-11-18, 02:59:05,VALID,915.91,VALID,0,VALID,97.2214,VALID,0,VALID,17.9872,VALID,113,VALID,0,
2010-11-18, 03:00:05,VALID,915.929,VALID,0,VALID,97.1528,VALID,0,VALID,17.9092,VALID,113,VALID,0,
2010-11-18, 03:01:05,VALID,915.911,VALID,0,VALID,97.1147,VALID,0,VALID,17.8313,VALID,113,VALID,0,
2010-11-18, 03:02:05,VALID,915.897,VALID,0,VALID,97.1299,VALID,0,VALID,17.7728,VALID,113,VALID,0,
2010-11-18, 03:03:05,VALID,915.885,VALID,0,VALID,97.2672,VALID,0,VALID,17.7923,VALID,113,VALID,0,
2010-11-18, 03:04:05,VALID,915.863,VALID,0,VALID,97.3815,VALID,0,VALID,17.8689,VALID,113,VALID,0,
2010-11-18, 03:05:05,VALID,915.875,VALID,0,VALID,97.3663,VALID,0,VALID,17.8897,VALID,113,VALID,0,
2010-11-18, 03:06:05,VALID,915.865,VALID,0,VALID,97.3663,VALID,0,VALID,17.9287,VALID,113,VALID,0,
2010-11-18, 03:07:05,VALID,915.855,VALID,0,VALID,97.3891,VALID,0,VALID,17.8897,VALID,113,VALID,0,
2010-11-18, 03:08:05,VALID,915.848,VALID,0,VALID,97.351,VALID,0,VALID,17.9092,VALID,113,VALID,0,
2010-11-18, 03:09:05,VALID,915.847,VALID,0,VALID,97.3129,VALID,0,VALID,17.8702,VALID,113,VALID,0,
2010-11-18, 03:10:05,VALID,915.878,VALID,0,VALID,97.3434,VALID,0,VALID,17.9092,VALID,113,VALID,0,
2010-11-18, 03:11:05,VALID,915.821,VALID,0,VALID,97.29,VALID,0,VALID,17.8508,VALID,113,VALID,0,
2010-11-18, 03:12:05,VALID,915.84,VALID,0,VALID,97.2748,VALID,0,VALID,17.8313,VALID,113,VALID,0,
2010-11-18, 03:13:05,VALID,915.812,VALID,0,VALID,97.3205,VALID,0,VALID,17.8702,VALID,113,VALID,0,
2010-11-18, 03:14:05,VALID,915.84,VALID,0,VALID,97.4425,VALID,0,VALID,17.9287,VALID,113,VALID,0,
2010-11-18, 03:15:05,VALID,915.815,VALID,0,VALID,97.4349,VALID,0.107441,VALID,17.9872,VALID,113,VALID,0.436719,
2010-11-18, 03:16:05,VALID,915.822,VALID,0,VALID,97.4273,VALID,0,VALID,18.0067,VALID,113,VALID,0.324219,
2010-11-18, 03:17:05,VALID,915.838,VALID,0,VALID,97.4273,VALID,0,VALID,18.0067,VALID,113,VALID,0.376172,
2010-11-18, 03:18:05,VALID,915.769,VALID,0,VALID,97.4273,VALID,0,VALID,18.0262,VALID,113,VALID,0.800391,
2010-11-18, 03:19:05,VALID,915.804,VALID,0,VALID,97.4349,VALID,0,VALID,18.0846,VALID,113,VALID,0.647656,
2010-11-18, 03:20:05,VALID,915.788,VALID,0,VALID,97.4501,VALID,0.107441,VALID,18.0846,VALID,113,VALID,0.5,
2010-11-18, 03:21:05,VALID,915.762,VALID,0,VALID,97.4273,VALID,0.107441,VALID,18.1236,VALID,113,VALID,0.185547,
2010-11-18, 03:22:05,VALID,915.759,VALID,0,VALID,97.4196,VALID,0,VALID,18.1626,VALID,113,VALID,0.0871094,
2010-11-18, 03:23:05,VALID,915.785,VALID,0,VALID,97.4196,VALID,0,VALID,18.1431,VALID,113,VALID,0,
2010-11-18, 03:24:05,VALID,915.756,VALID,0,VALID,97.4196,VALID,0,VALID,18.1626,VALID,113,VALID,0,
2010-11-18, 03:25:05,VALID,915.766,VALID,0,VALID,97.412,VALID,0,VALID,18.2211,VALID,113,VALID,0,
2010-11-18, 03:26:05,VALID,915.774,VALID,0,VALID,97.412,VALID,0.107441,VALID,18.1417,VALID,113,VALID,0,
2010-11-18, 03:27:05,VALID,915.754,VALID,0,VALID,97.4196,VALID,0,VALID,18.1821,VALID,113,VALID,0,
2010-11-18, 03:28:05,VALID,915.782,VALID,0,VALID,97.412,VALID,0.107441,VALID,18.2016,VALID,113,VALID,0.347656,
2010-11-18, 03:29:05,VALID,915.771,VALID,0,VALID,97.3891,VALID,0,VALID,18.2211,VALID,113,VALID,0.216797,
2010-11-18, 03:30:05,VALID,915.759,VALID,0,VALID,97.3739,VALID,0,VALID,18.1626,VALID,113,VALID,0,
2010-11-18, 03:31:05,VALID,915.78,VALID,0,VALID,97.3663,VALID,0,VALID,18.1431,VALID,113,VALID,0.421875,
2010-11-18, 03:32:05,VALID,915.717,VALID,0,VALID,97.3739,VALID,0,VALID,18.1626,VALID,113,VALID,0.601953,
2010-11-18, 03:33:05,VALID,915.755,VALID,0,VALID,97.29,VALID,0,VALID,18.1821,VALID,113,VALID,0.583984,
2010-11-18, 03:34:05,VALID,915.756,VALID,0,VALID,97.29,VALID,0.107441,VALID,18.1626,VALID,113,VALID,0.470313,
2010-11-18, 03:35:05,VALID,915.741,VALID,0,VALID,97.3815,VALID,0,VALID,18.1821,VALID,113,VALID,0.448438,
2010-11-18, 03:36:05,VALID,915.726,VALID,0,VALID,97.3205,VALID,0.107441,VALID,18.1821,VALID,113,VALID,0.2875,
2010-11-18, 03:37:05,VALID,915.725,VALID,0,VALID,97.3053,VALID,0.107441,VALID,18.1431,VALID,113,VALID,0,
2010-11-18, 03:38:05,VALID,915.742,VALID,0,VALID,97.3129,VALID,0,VALID,18.1236,VALID,113,VALID,0.458203,
2010-11-18, 03:39:05,VALID,915.731,VALID,0,VALID,97.3281,VALID,0,VALID,18.2016,VALID,113,VALID,0.424219,
2010-11-18, 03:40:05,VALID,915.727,VALID,0,VALID,97.3281,VALID,0.107441,VALID,18.2211,VALID,113,VALID,0.325,
2010-11-18, 03:41:05,VALID,915.747,VALID,0,VALID,97.3053,VALID,0,VALID,18.2016,VALID,113,VALID,0.444922,
2010-11-18, 03:42:05,VALID,915.751,VALID,0,VALID,97.2824,VALID,0,VALID,18.1821,VALID,113,VALID,0.803516,
2010-11-18, 03:43:05,VALID,915.715,VALID,0,VALID,97.3129,VALID,0,VALID,18.2601,VALID,113,VALID,0.824219,
2010-11-18, 03:44:05,VALID,915.741,VALID,0,VALID,97.2748,VALID,0.107441,VALID,18.2601,VALID,113,VALID,0.6,
2010-11-18, 03:45:05,VALID,915.726,VALID,0,VALID,97.2367,VALID,0,VALID,18.2601,VALID,113,VALID,0.630469,
2010-11-18, 03:46:05,VALID,915.706,VALID,0,VALID,97.1757,VALID,0.107441,VALID,18.2601,VALID,113,VALID,0.729688,
2010-11-18, 03:47:05,VALID,915.715,VALID,0,VALID,97.1909,VALID,0,VALID,18.2406,VALID,113,VALID,0.465234,
2010-11-18, 03:48:05,VALID,915.708,VALID,0,VALID,97.2062,VALID,0,VALID,18.2601,VALID,113,VALID,0.249219,
2010-11-18, 03:49:05,VALID,915.652,VALID,0,VALID,97.1604,VALID,0,VALID,18.2796,VALID,113,VALID,0.259375,
2010-11-18, 03:50:05,VALID,915.676,VALID,0,VALID,97.1223,VALID,0.107441,VALID,18.2197,VALID,113,VALID,0.197656,
2010-11-18, 03:51:05,VALID,915.687,VALID,0,VALID,97.1299,VALID,0,VALID,18.2601,VALID,113,VALID,0.58125,